Flag for Germany Weather past 2 weeks in Nienburg (Weser), Lower Saxony, Germany

Now
45 °F

Quite cool.


Feels Like: 36 °F
Forecast: 36 / 46 °F
Wind: 24 mph from West

Location: Wunstorf Airport

Current Time: Dec 20, 2014 at 2:53:50 PM

Latest Report: Dec 20, 2014 at 2:20 PM


Visibility: 0 mi

Pressure: 29.89 "Hg

Humidity: 81%

Dew point: 39 °F

Location of Nienburg (Weser)Location

Historic Weather in Nienburg (Weser) — Graph

°F

Nienburg (Weser) temperature yesterday

Maximum temperature yesterday: 54 °F (at 12:20 AM)
Minimum temperature yesterday: 43 °F (at 8:20 PM)
Average temperature yesterday: 49 °F

Past Weeks' High & Low Weather Summary

 TemperatureHumidityPressure
High54 °F (Dec 18, 5:20 PM)100% (Dec 6, 9:20 AM)30.33 "Hg (Dec 6, 9:20 AM)
Low30 °F (Dec 14, 7:20 PM)66% (Dec 7, 4:20 PM)29.30 "Hg (Dec 12, 2:20 PM)
Average41 °F88%29.88 "Hg
* Reported Dec 5 1:20 PM — Dec 20 1:20 PM, Nienburg (Weser), Weather by CustomWeather, © 2014

Note: Actual official high and low records may vary slightly from our data, if they occured in-between our weather recording intervals... More about our weather records

Advertising

Nienburg (Weser) weather history for previous 24 hours

 ConditionsComfort  
Time TempWeatherWind HumidityBarometerVisibility
1:20 PM
Dec 20
45 °FQuite cool.21 mph81%29.86 "Hg2 mi
12:20 PM43 °FQuite cool.22 mph87%29.86 "Hg2 mi
11:20 AM43 °FQuite cool.22 mph81%29.89 "Hg4 mi
10:20 AM43 °FQuite cool.22 mph81%29.89 "Hg5 mi
9:20 AM43 °FQuite cool.21 mph81%29.92 "Hg4 mi
8:20 AM43 °FQuite cool.17 mph81%29.92 "Hg5 mi
7:20 AM43 °FQuite cool.18 mph81%29.95 "Hg4 mi
6:20 AM45 °FQuite cool.20 mph76%29.95 "Hg5 mi
5:20 AM45 °FQuite cool.21 mph71%29.95 "Hg5 mi
4:20 AM43 °FQuite cool.20 mph81%29.95 "Hg5 mi
3:20 AM43 °FQuite cool.20 mph81%29.95 "Hg5 mi
2:20 AM43 °FQuite cool.21 mph76%29.95 "Hg5 mi
1:20 AM45 °FQuite cool.22 mph76%29.95 "Hg5 mi
12:20 AM43 °FQuite cool.16 mph81%29.95 "Hg5 mi
11:20 PM
Dec 19
43 °FQuite cool.17 mph81%29.92 "Hg5 mi
10:20 PM43 °FQuite cool.18 mph81%29.92 "Hg6 mi
9:20 PM43 °FQuite cool.17 mph76%29.89 "Hg6 mi
8:20 PM43 °FQuite cool.15 mph76%29.89 "Hg6 mi
7:20 PM45 °FQuite cool.15 mph76%29.86 "Hg5 mi
6:20 PM45 °FQuite cool.20 mph76%29.83 "Hg6 mi
5:20 PM45 °FQuite cool.13 mph76%29.83 "Hg6 mi
4:20 PM46 °FCool.17 mph76%29.80 "Hg6 mi
3:20 PM46 °FCool.16 mph87%29.77 "Hg6 mi
2:20 PM48 °FPartly sunny.14 mph87%29.74 "HgN/A
Weather by CustomWeather, © 2014

See weather overviewHow to use our weather pages